N406BC KPIH-KPIH

Flight info

Callsign N406BC
Flight time 0h 3m
Altitude 5500
Route DCT
Aircraft EC45/L-VGD/C

Departure

Time 2026-04-23 03:46
Airport Pocatello Regional Airport (KPIH)

Arrival

Time 2026-04-23 03:50
Airport Pocatello Regional Airport (KPIH)
Time Latitude Longitude Altitude Speed Heading
2026-04-23 03:42 42.90943 -112.58545 4452 ft 0 kts 132°
2026-04-23 03:45 42.90943 -112.58544 4453 ft 1 kts 133°
2026-04-23 03:45 42.90941 -112.58536 4457 ft 2 kts 245°
2026-04-23 03:46 42.90942 -112.58555 4464 ft 16 kts 279°
2026-04-23 03:46 42.90812 -112.58952 4559 ft 76 kts 224°
2026-04-23 03:46 42.90317 -112.59402 4769 ft 89 kts 192°
2026-04-23 03:46 42.89737 -112.59219 5166 ft 88 kts 145°
2026-04-23 03:47 42.89203 -112.58741 5449 ft 92 kts 129°
2026-04-23 03:47 42.89131 -112.58042 5494 ft 70 kts 42°
2026-04-23 03:47 42.89498 -112.57591 5530 ft 77 kts 38°
2026-04-23 03:47 42.89969 -112.57063 5527 ft 94 kts 37°
2026-04-23 03:48 42.90506 -112.56466 5520 ft 109 kts 38°
2026-04-23 03:48 42.91117 -112.55760 5528 ft 121 kts 39°
2026-04-23 03:48 42.91766 -112.55006 5378 ft 123 kts 30°
2026-04-23 03:48 42.92525 -112.54911 5319 ft 110 kts 327°
2026-04-23 03:49 42.93028 -112.55576 5278 ft 96 kts 291°
2026-04-23 03:49 42.92925 -112.56388 5106 ft 89 kts 224°
2026-04-23 03:49 42.92495 -112.56965 4827 ft 87 kts 218°
2026-04-23 03:49 42.92069 -112.57512 4602 ft 73 kts 218°
2026-04-23 03:50 42.91859 -112.57795 4471 ft 12 kts 218°
2026-04-23 03:50 42.91717 -112.57986 4479 ft 74 kts 226°
2026-04-23 03:50 42.91243 -112.58629 4513 ft 105 kts 225°
2026-04-23 03:50 42.90735 -112.59327 4784 ft 103 kts 226°
2026-04-23 03:51 42.90232 -112.60022 5034 ft 103 kts 226°
2026-04-23 03:51 42.89728 -112.60718 5295 ft 103 kts 225°
2026-04-23 03:51 42.89164 -112.61310 5420 ft 108 kts 198°
2026-04-23 03:51 42.88482 -112.60982 5521 ft 106 kts 140°
2026-04-23 03:52 42.87971 -112.60299 5504 ft 108 kts 120°
2026-04-23 03:52 42.88106 -112.59341 5527 ft 105 kts 49°
2026-04-23 03:52 42.88601 -112.58633 5519 ft 103 kts 39°
2026-04-23 03:52 42.89134 -112.57995 5520 ft 104 kts 38°
2026-04-23 03:53 42.89681 -112.57371 5400 ft 100 kts 32°
2026-04-23 03:53 42.90263 -112.56916 5160 ft 96 kts 13°
2026-04-23 03:53 42.90906 -112.56935 4849 ft 90 kts 326°
2026-04-23 03:53 42.91221 -112.57575 4630 ft 78 kts 272°
2026-04-23 03:54 42.91167 -112.58228 4586 ft 60 kts 233°
2026-04-23 03:54 42.90994 -112.58557 4481 ft 21 kts 225°
2026-04-23 03:54 42.90976 -112.58592 4457 ft 3 kts 229°
2026-04-23 03:54 42.90975 -112.58596 4452 ft 0 kts 225°